Location: Caltech
(34.1382°N, 118.1253°W)
Time: 03:19:19
(UTC-07:00)

Iridium 65 - Visible Passes

Search period start: 24 April 2018 00:00
Search period end: 04 May 2018 00:00
Orbit: 776 x 779 km, 86.4° (Epoch: 23 April)

Date Brightness Start Highest point End Pass type
(mag) Time Alt. Az. Time Alt. Az. Time Alt. Az.
24 Apr 5.4 04:52:09 10° N 04:57:21 73° W 05:02:32 10° S visible
25 Apr 6.1 04:18:42 10° N 04:23:51 58° E 04:28:58 10° SSE visible
26 Apr 7.3 03:45:40 10° NNE 03:50:13 30° E 03:54:44 10° SE visible
26 Apr 6.6 05:26:34 10° NNW 05:30:44 25° W 05:34:54 10° SW visible
27 Apr 8.1 03:13:23 10° NE 03:16:28 16° ENE 03:19:31 10° ESE visible
27 Apr 5.8 04:52:25 10° NNW 04:57:24 48° W 05:02:23 10° SSW visible
28 Apr 5.5 04:18:43 10° N 04:23:58 87° E 04:28:33 14° S visible
29 Apr 6.5 03:45:25 10° NNE 03:50:25 44° E 03:54:26 15° SSE visible
29 Apr 7.1 05:27:27 10° NW 05:30:40 17° W 05:33:54 10° WSW visible
30 Apr 7.6 03:12:37 10° NNE 03:16:44 23° E 03:20:23 12° SE visible
30 Apr 6.3 04:52:50 10° NNW 04:57:25 32° W 05:00:48 16° SW visible
01 May 8.2 02:41:03 10° NE 02:42:55 12° ENE 02:44:47 10° E visible
01 May 5.5 04:18:53 10° N 04:24:03 63° W 04:26:50 27° SSW visible
02 May 5.8 03:45:21 10° N 03:50:34 67° E 03:52:55 32° SSE visible
02 May 7.4 05:29:19 10° WNW 05:30:34 11° WNW 05:31:50 10° W visible
03 May 6.9 03:12:13 10° NNE 03:16:57 34° E 03:19:02 25° SE visible
03 May 6.8 04:53:29 10° NW 04:57:23 22° W 04:59:28 17° WSW visible
